Zurück zum Katalog

STARLINK-34297

AktivKommunikationVLEO
NORAD 64261·PAYLOAD·🇺🇸 United States

Gestartet Jun 4, 2025 von Vandenberg Space Force Base

Loading…

Nächste Überflüge (nächste 24 Stunden)

TLE

AktuellSource: CelesTrak SupGP

Epoche: Sep 15, 2026, 02:35 UTC

1 64261C 25120F   26258.10812500  .00045600  00000+0  13471-2 0  2589
2 64261  53.1590 311.2589 0001273  88.6857 354.6557 15.34372156    11

Verfolge STARLINK-34297 in Echtzeit mit AllMySat

Download on the App Store